Location: Apeadero de Los Molinos-Guadarrama
(40.7091°N, 4.0689°W)
Time: 12:46:21
(UTC+00:00)

ERBS - Pass Details

Date: 14 May 2021
Orbit: 399 x 417 km, 57.0° (Epoch: 18 June)

Event Time Altitude Azimuth Distance (km) Brightness Sun altitude
Rises 22:18:07 0° 324° (NW) 2,354 7.4 -24.8°
Reaches altitude 10° 22:20:28 10° 339° (NNW) 1,492 6.1 -25.0°
Enters shadow 22:22:36 23° 16° (NNE) 951 4.4 -25.2°
